Погода в Калуге

Россия / Калужская область     54°30′49″N   36°15′40″E
темп.,
°C
ветер,
м/с
пор.,
м/с
влажн.,
%
обл.,
%
осадки,
мм/ч
давл.,
гПа
погр.,
м
4 августа, ср
ср400:00+16зюз26685 0.0 1014167
03:00+12з24865 0.0 101566
06:00+13зюз257696 0.0 1015125
09:00+16з2369100 0.0 1016291
12:00+21зюз235239 0.3 10161267
15:00+22з464955 0.6 10161447
18:00+21зсз455537 0.1 1016876
21:00+15з228313 0.6 101713
5 августа, чт
чт500:00+13юз11871 0.0 101711
03:00+12ю1189100 0.0 101811
06:00+13ююв228775 0.0 101851
09:00+17ююв2471100 0.0 1017258
12:00+23ююв3544100 0.0 10161684
15:00+17св1186100 0.8 101652
18:00+15ююв1395100 1.4 1016105
21:00+14юв3698100 6.6 1015227
6 августа, пт
пт600:00+15вюв3698100 6.2 1014231
03:00+15вюв2697100 6.6 1013216
06:00+15в239783 0.1 1012106
09:00+16ю2698100 1.9 1012290
12:00+19юв4786100 3.4 1011479
15:00+21юв4773100 3.7 1010574
18:00+20с2381100 0.6 101049
21:00+17всв51192100 1.3 1010284
7 августа, сб
сб700:00+17всв6158775 0.2 1009402
03:00+16в51482100 0.2 1010337
06:00+15вюв3892100 0.0 1010192
09:00+20юв249186 3.3 1010223
12:00+26юв355895 0.8 1010696
15:00+30ююв463957 0.8 10091697
18:00+20з358296 0.1 1010101
21:00+20вюв2281100 0.1 101045
8 августа, вс
вс800:00+19вюв2482100 0.2 101073
03:00+18вюв3982100 0.4 1010176
06:00+17ююв1180100 0.1 101033
09:00+18ююз2690100 0.8 1012205
12:00+18сз1294100 1.2 101253
15:00+18ююв1196100 2.9 1013101
18:00+18св1197100 3.4 101344
21:00+17зсз2398100 4.4 101497